Погода в Волгограде

Погода в Волгограде : погода сейчас, прогноз погоды и архив. Всё, что Вы хотите узнать о погоде в Волгограде!

Хотите узнать прогноз погоды в Волгограде? Тогда Вам сюда: Погода в Волгограде

Поиск расширенной информации на нашем сайте:

Другие новости

Новости СМИ2

Главная страница сайта

Новости сайта

02.10.2013

Напоминаем, что на нашем новом сайте вы можете получить высокодетализированные прогнозы погоды по пунктам России, СНГ и мира (включающие важные для авиации метеовеличины, такие как направление и скорость ветра, видимость, явления погоды, количество и форма облачности, нижняя и верхняя граница облачности), а также ознакомиться с разнообразными материалами по авиационной метеорологии и подборкой полезных ссылок на эту тему.

Сайт Метеоцентр.Азия посвящён разработке технологий оптимизации авиаметеорологического обслуживания, включая проектирование и перспективное создание нескольких автоматизированных авиаметеорологических систем:
- система выпуска высокодетальных прогностических карт явлений погоды для нижнего воздушного пространства по России и ближнему зарубежью;
- система верификации прогнозов TAF (выпускаемых синоптиками официальных АМСГ РФ и ближнего зарубежья) и AUTOTAF (выпускаемых сайтом Метеоцентр.Азия) - выявление ошибок, онлайн-сопоставление с фактической погодой METAR, автоматическое внесение коррективов в прогнозы при резком отклонении фактической погоды от прогноза, подсчёт оправдываемости прогнозов по элементам и в целом;
- система обработки, анализа и отображения авиаметеорологической информации для применения провайдерами метеорологической информации.


Погода в Волгограде - сегодня

Время (UTC), дата Ветер
(°,м/с) 
Видим.   Явления Облачность Т
(°С)
Тd
(°С)
f(%) Тe
(°С)
Pmin
(гПа)
dP
(гПа)
Po
(мм)
O2
(г/м3)
Тmin Tmax R s Состояние
почвы
21 22.03.17 060 (СВ) 4000 м  дымка{морось}  10/10 100 м 
[St]
-1.7 -2.2 96 -4  1020.4  0.4  751  305           
00 23.03.17 360 (С) 4000 м  слаб. снег{морось}  10/10 100 м 
[Frnb|Ns]
-1.5 -2 96 -3  1021.4  0.9  751  305           
03 23.03.17 010 (С) 4000 м  в посл. час снег  10/8 450 м средняя 
[Sc|As op]
-1.5 -2.2 95 -2  1022.6  1.2  752  305  -1.9         
06 23.03.17 080 (В) 10 км  {снег}  10/10 210 м 
[St]
-0.3 -1.2 94 -2  1023.4  0.8  753  304           
09 23.03.17 100 (В) 10 км    8/8 750 м 
[Sc]
+2 +0.3 88 +1  1024.2  0.9  754  301           
12 23.03.17 150 (ЮВ) 10 км    9/9 500 м 
[Sc]
+4 -0.2 74 +4  1024.2  0.2  754  299           
15 23.03.17 170 (Ю) 10 км    9/9 400 м 
[St]
+3.5 +0.9 83 +3  1025  0.7  754  300    +4.3       
18 23.03.17 170 (Ю) 10 км    9/9 600 м 
[Sc]
+3 +1.4 89 +2  1026  755  301           
21 23.03.17 200 (Ю) 10 км    9/0 средняя 
[Ac trans]
+1.9 +0.8 92 1026.2  0.1  755  302           
00 24.03.17 220 (ЮЗ) 10 км    9/9 1000 м 
[Sc]
+2.1 +1.6 96 +1  1026.2  755  302           
03 24.03.17 250 (З) 10 км    9/9 1000 м 
[Sc]
+1.8 +1.2 96 1026.5  0.3  755  302  +0.9         
06 24.03.17 240 (ЮЗ) 10 км    9/5 1000 м средняя 
[Sc|Ac trans]
+4.7 +2.3 84 +3  1026.9  0.6  756  299           
09 24.03.17 230 (ЮЗ) 10 км    9/9 1000 м 
[Sc]
+7.2 +2.6 73 +5  1025.9  -0.8  755  296           
12 24.03.17 210 (ЮЗ) 10 км    9/4 1000 м средняя 
[Sc|Ac trans]
+8.2 +3.3 71 +7  1024.1  -1.7  754  294           
15 24.03.17 220 (ЮЗ) 10 км    9/4 1000 м средняя 
[Sc|Ac trans]
+8.1 +2.9 70 +7  1022.6  -1.5  753  294    +9.4       
18 24.03.17 200 (Ю) 10 км    9/9 2000 м средняя 
[Ac trans]
+7.3 +3 74 +6  1021.3  -1.3  752  295           
21 24.03.17 220 (ЮЗ) 8-11{11}  10 км  слаб. ливневой дождь  9/9 1000 м кучево-дожд. 
[Cb calv]
+6.1 +2.2 76 +3  1019.1  -2.3  750  295           
00 25.03.17 220 (ЮЗ) 8{11}  10 км  слаб. ливневой дождь  9/9 1000 м кучево-дожд. 
[Cb calv]
+5.5 +2.9 83 +2  1016.7  -2.4  748  295           
03 25.03.17 210 (ЮЗ) 8-11{10}  10 км  слаб. ливневой дождь  9/9 1000 м кучево-дожд. 
[Cb calv]
+5.4 +3.5 88 +2  1013.6  -3  746  294  +5.2         
06 25.03.17 230 (ЮЗ) 11-14{12}  10 км  {ливн. осадки}  9/9 1500 м средняя 
[Ac trans]
+8.6 +4.2 74 +6  1011.7  -1.8  745  290           
09 25.03.17 250 (З) 7{15}  4000 м  слаб. ливневой дождь  10/10 210 м кучево-дожд. 
[Cb calv]
+6.6 +5.9 95 +4  1011.1  -0.6  744  292           
12 25.03.17 320 (СЗ) 6{15}  10 км  в посл. час ливневой дождь  9/9 1000 м 
[Sc]
+5.7 +3.2 84 +3  1011.9  0.7  745  293           
15 25.03.17 340 (С) 4{12}  10 км    9/0 средняя 
[Ac trans]
+3.9 -0.8 71 +2  1013.7  1.7  746  296    +9.1       
18 25.03.17 280 (З) 2{12}  10 км    3/3 1500 м 
[Sc]
-0.2 -2.6 84 -1  1015.7  1.6  747  302           
21 25.03.17 340 (С) 10 км    ясно 
-2 -4.2 85 -1  1016.4  0.6  748  304           
Время (UTC), дата Ветер
(°,м/с) 
Видим.   Явления Облачность Т
(°С)
Тd
(°С)
f(%) Тe
(°С)
Pmin
(гПа)
dP
(гПа)
Po
(мм)
O2
(г/м3)
Тmin Tmax R s Состояние
почвы

Для получения пояснительной информации подведите курсор к названию столбца.

ПОГОДА в Волгограде - архив

Всё, что Вы хотите узнать о погоде в Волгограде - удобно и подробно!

Выберите нужную дату (начиная с 1 января 2015* года) и нажмите кнопку "Найти".
Будут отображены архивные сводки погоды по пункту Волгоград, начиная с указанной даты.


Отображать данные в формате CSV (для использования в таблицах Excel)


Внимание! Наш архив погоды предназначен исключительно для личного некоммерческого использования в познавательных целях. Если Вам необходимы официальные справки о состоянии погоды (для производственных, юридических, коммерческих и т.п. целей), обращайтесь в органы Росгидромета.

*Примечание: данная дата относится к архиву по метеостанциям СССР (Россия, СНГ, Балтия).
Архив по метеостанциям Зарубежной Европы и Азии (кроме Китая) хранится 10 дней, по другим регионам земного шара (Китай, Африка, Америка, Австралия, Океания) - 1 день.

Волгоград - район местоположения метеостанции


Название, широта, долгота, высота метеостанции:
Волгоград (Гумрак) 48.8°ш. 44.4°д. 134 м над ур. моря [Российская Федерация]

Дополнительная информация

В oтличие oт бoльшинства пoгoдных сайтoв мы публикуем пoдрoбную метеoинфoрмацию в детальнoм прoфессиoнальнoм фoрмате.

Характеристики температуры и влажнoсти вoздуха измеряются на высoте 2 м в тени вдали oт зданий и деревьев.
Скoрoсть ветра измеряется на высoте 10 м (на урoвне рoста челoвека скoрoсть ветра ниже в 1.5-2 раза). Если метеoстанция нахoдится в гoрoде или в лесу, тo скoрoсть ветра занижена на 2-4 м/с пo сравнению с oткрытым местoм. Скoрoсть ветра над акватoриями крупных рек и oзёр, а также на вершинах хoлмoв на 2-5 м/с выше, чем в oбычных услoвиях.
Атмoсфернoе давление в разных тoчках местнoсти мoжет значительнo oтличаться oт давления на метеoстанции, в зависимoсти oт услoвий рельефа (при пoдъёме на 10 м давление пoнижается примернo на 1 мм рт.ст.).